Find NOAA 11

NORAD ID: 19531 Int'l Des: 1988-089 Owner: NOAA Country: US operational
LEOCIRCULARRETROGRADESSO

Current View

Loading 3D Globe...

About NOAA 11

Description loading...

Upcoming Passes

Passes for default location (London). Set your location on the main map for personalized predictions.

Altitude History

Loading altitude history...

Two-Line Element Set

1 19531U 88089A 26150.83414090 .00000047 00000-0 45427-4 0 9992
2 19531 98.6193 97.1641 0010943 354.2762 5.8286 14.15836033945024
Epoch: May 30, 2026 • Age: 13 hours

Current Status

Altitude 862.0 km
Velocity 7.42 km/s
Sub-Earth Point -69.59°S, 93.93°E
Launch Date Sep 24, 1988
Age 37.6 years
Type weather

Technical Details

Classification Payload
Mass 1030.00 kg
Dry Mass 1030.00 kg
Total Mass 1712.00 kg
Length 4.20 m
Diameter 1.90 m
Span 8.00 m
Shape Box + Pan
Manufacturer GEEW
Bus Type ATN
Phase Status In Orbit
Owner/State NOAA/US

Most Searched